Hourly Data Report for June 29, 2021

SARNIA
ONTARIO
Current Station Operator: NAVCAN

42°59'58.000" N
82°18'32.000" W
181.40 m
6127510
71704
YZR

Download Data

Hourly Data (June 2021)
Hourly Data Report for June 29, 2021
TIME
LST
Temp Definition
°C
Dew Point Definition
°C
Rel Hum Definition
%
Precip. Amount Definition
mm

Wind Dir Definition
10's deg

Wind Spd Definition
km/h
Visibility Definition
km
Stn Press Definition
kPa
Hmdx Definition


Wind Chill Definition


Weather Definition


00:00 20.7 20.1 96 0.0 23 5 16.1 100.01 28   LegendNANA
01:00 21.0 20.4 96 0.0 16 8 16.1 100.00 29   LegendNANA
02:00 20.7 20.2 97 0.0 17 5 9.7 99.98 28   Fog
03:00 20.9 20.4 97 0.0 18 9 9.7 99.98 29   Fog
04:00 22.1 21.4 96 2.0 20 9 11.3 100.03 31   Rain
05:00 21.5 21.0 97 0.2 17 8 4.8 100.01 30   Fog
06:00 22.1 21.4 96 0.0 18 9 4.8 100.03 31   Fog
07:00 24.4 22.9 91 0.0 19 15 11.3 100.00 35   LegendNANA
08:00 26.5 23.1 81 0.0 21 13 16.1 100.00 37   LegendNANA
09:00 28.2 23.7 76 0.0 20 13 16.1 99.98 39   LegendNANA
10:00 29.8 22.8 66 0.0 21 17 16.1 99.95 40   LegendNANA
11:00 30.7 23.2 64 0.0 22 15 16.1 99.93 41   LegendNANA
12:00 31.0 23.4 64 0.0 24 17 16.1 99.90 42   LegendNANA
13:00 30.8 23.1 63 0.0 21 15 16.1 99.85 41   LegendNANA
14:00 31.4 22.9 60 0.0 20 17 16.1 99.72 42   LegendNANA
15:00 22.4 20.7 90 6.1 20 9 14.5 99.96 31   Thunderstorms, Rain
16:00 21.6 19.9 90 0.5 20 11 16.1 99.80 29   Thunderstorms, Rain
17:00 22.5 21.2 92 0.2 21 9 16.1 99.79 31   LegendNANA
18:00 24.2 21.7 86 0.0 20 9 16.1 99.75 33   LegendNANA
19:00 23.9 21.7 87 0.0 19 13 16.1 99.73 33   LegendNANA
20:00 23.4 21.9 91 0.0 18 18 16.1 99.78 33   LegendNANA
21:00 23.0 20.9 88 0.0 20 13 16.1 99.73 31   LegendNANA
22:00 23.3 21.2 88 0.0 22 13 16.1 99.74 32   LegendNANA
23:00 23.5 21.3 87 0.0 21 15 16.1 99.72 32   LegendNANA

Notes on Data Quality.

Legend

  • E = Estimated
  • M = Missing
  • NA = Not Available*
  • [empty] = Indicates an unobserved value
Date modified: